Weather History for Owensboro, KY

Change the Weather History Date:

Tuesday, December 25, 2012

  Actual Average Record
Temperature  
Mean Temperature 34 °F -  
Max Temperature 37 °F 40 °F 67 °F (1942)
Min Temperature 32 °F 25 °F -6 °F (1983)
Degree Days  
Heating Degree Days 30    
Moisture  
Dew Point 30 °F    
Average Humidity 81    
Maximum Humidity 97    
Minimum Humidity 68    
Precipitation  
Precipitation 0.07 in - - ()
Sea Level Pressure  
Sea Level Pressure 30.03 in    
Wind  
Wind Speed 11 mph (NE)    
Max Wind Speed 22 mph    
Max Gust Speed -    
Visibility 6 miles    
Events Rain , Snow    
Averages and records for this station are not official NWS values.
T = Trace of Precipitation, MM = Missing Value Source: NWS Daily Summary

Daily Weather History Graph

Daily Weather History Graph

Search for Another Location

Airport:

Trip Planner

Search our weather history database for the weather conditions in past years. The results will help you decide how hot, cold, wet, or windy it might be!

Date:

Astronomy

Dec. 25, 2012 Rise Set
Actual Time 7:02 AM CST 4:35 PM CST
Civil Twilight 6:32 AM CST 5:05 PM CST
Nautical Twilight 5:59 AM CST 5:38 PM CST
Astronomical Twilight 5:28 AM CST 6:10 PM CST
Moon 2:43 PM CST (12/25) 4:35 AM CST (12/25)
Length of Visible Light 10h 32m
Length of Day
9h 33m
Waxing Gibbous, 94% of the Moon is Illuminated
Dec 25
Waxing Gibbous
Dec 28
Full
Jan 4
Last Quarter
Jan 11
New
Jan 18
First Quarter

Hourly Weather History & Observations

Time (CST) Temp. Windchill Dew Point Humidity Pressure Visibility Wind Dir Wind Speed Gust Speed Precip Events Conditions
12:56 AM 34.0 °F 28.0 °F 28.0 °F 79% 30.09 in 10.0 mi North 6.9 mph - N/A   Overcast
1:56 AM 34.0 °F 28.0 °F 28.0 °F 79% 30.09 in 10.0 mi North 6.9 mph - N/A   Overcast
2:56 AM 34.0 °F 28.8 °F 28.0 °F 79% 30.12 in 9.0 mi North 5.8 mph - N/A   Overcast
3:56 AM 32.9 °F 26.7 °F 29.1 °F 86% 30.12 in 6.0 mi North 6.9 mph - N/A   Overcast
4:56 AM 32.9 °F 25.9 °F 29.1 °F 86% 30.13 in 5.0 mi North 8.1 mph - N/A   Overcast
5:36 AM 33.8 °F 27.7 °F 28.4 °F 81% 30.13 in 6.0 mi NNE 6.9 mph - N/A   Overcast
5:44 AM 33.8 °F 27.0 °F 28.4 °F 81% 30.12 in 6.0 mi NNE 8.1 mph - N/A   Overcast
5:56 AM 32.9 °F 24.1 °F 29.1 °F 86% 30.12 in 5.0 mi NNE 11.5 mph - N/A   Mostly Cloudy
6:25 AM 33.8 °F 26.4 °F 28.4 °F 81% 30.12 in 5.0 mi NE 9.2 mph - N/A   Mostly Cloudy
6:56 AM 32.0 °F 24.8 °F 29.1 °F 89% 30.12 in 4.0 mi NE 8.1 mph - N/A   Overcast
7:56 AM 32.9 °F 25.3 °F 30.0 °F 89% 30.14 in 3.0 mi NE 9.2 mph - N/A   Overcast
8:56 AM 34.9 °F 29.9 °F 31.1 °F 86% 30.18 in 4.0 mi NNE 5.8 mph - N/A   Overcast
9:56 AM 36.0 °F 28.5 °F 31.1 °F 82% 30.18 in 5.0 mi NE 10.4 mph - N/A   Haze
10:56 AM 36.9 °F 30.1 °F 30.0 °F 76% 30.16 in 6.0 mi NE 9.2 mph - N/A   Haze
11:56 AM 36.9 °F 28.7 °F 30.0 °F 76% 30.13 in 8.0 mi ENE 12.7 mph - N/A   Overcast
12:56 PM 36.9 °F 30.1 °F 29.1 °F 74% 30.14 in 10.0 mi NE 9.2 mph - N/A   Overcast
1:56 PM 37.9 °F 28.5 °F 28.0 °F 68% 30.06 in 10.0 mi East 17.3 mph - N/A   Overcast
2:56 PM 37.9 °F 28.5 °F 28.0 °F 68% 30.03 in 10.0 mi East 17.3 mph - N/A   Overcast
3:16 PM 37.4 °F 29.3 °F 28.4 °F 70% 30.03 in 10.0 mi ENE 12.7 mph - N/A   Scattered Clouds
3:25 PM 37.4 °F 28.2 °F 28.4 °F 70% 30.03 in 10.0 mi ENE 16.1 mph - N/A   Mostly Cloudy
3:56 PM 37.9 °F 28.9 °F 29.1 °F 71% 30.04 in 10.0 mi ENE 16.1 mph - N/A   Mostly Cloudy
4:56 PM 37.9 °F 28.9 °F 29.1 °F 71% 30.04 in 7.0 mi ENE 16.1 mph - N/A   Mostly Cloudy
5:56 PM 37.9 °F 29.6 °F 30.0 °F 73% 30.04 in 7.0 mi NE 13.8 mph - N/A   Overcast
6:56 PM 37.9 °F 30.0 °F 31.1 °F 76% 30.00 in 7.0 mi NE 12.7 mph - N/A   Overcast
7:56 PM 37.9 °F 27.9 °F 31.1 °F 76% 29.95 in 10.0 mi ENE 19.6 mph - N/A   Overcast
8:56 PM 36.9 °F 25.9 °F 31.1 °F 80% 29.92 in 7.0 mi ENE 21.9 mph - 0.00 in Rain Light Rain
9:56 PM 36.0 °F 27.1 °F 32.9 °F 89% 29.90 in 4.0 mi ENE 13.8 mph - 0.02 in Rain Rain
10:30 PM 35.6 °F 25.9 °F 33.8 °F 93% 29.86 in 2.5 mi ENE 16.1 mph - 0.02 in Rain Rain
10:46 PM 35.6 °F 25.2 °F 33.8 °F 93% 29.82 in 3.0 mi ENE 18.4 mph - 0.04 in Snow Light Snow
10:56 PM 34.9 °F 23.9 °F 34.0 °F 97% 29.82 in 3.0 mi ENE 19.6 mph - 0.04 in Snow Light Snow
11:13 PM 35.6 °F 25.9 °F 33.8 °F 93% 29.78 in 4.0 mi NE 16.1 mph - 0.00 in   Overcast
11:34 PM 35.6 °F 24.5 °F 33.8 °F 93% 29.77 in 5.0 mi ENE 20.7 mph - 0.00 in Snow Light Snow
11:56 PM 34.9 °F 24.2 °F 32.9 °F 92% 29.75 in 4.0 mi ENE 18.4 mph - 0.01 in Snow Light Snow